Weather History for KPMD - August, 2013

Change the Weather History Date:

Saturday, August 10, 2013

  Actual Average Record
Temperature  
Mean Temperature 76 °F 82 °F  
Max Temperature 90 °F 98 °F 109 °F (2012)
Min Temperature 61 °F 66 °F 48 °F (1949)
Degree Days  
Heating Degree Days 0 0  
Month to date heating degree days 0 0  
Since 1 June heating degree days 0 7  
Since 1 July heating degree days 0 0  
Cooling Degree Days 11 17  
Month to date cooling degree days 131 176  
Year to date cooling degree days 1396 1154  
Since 1 June cooling degree days 1165 984  
Growing Degree Days 26 (Base 50)    
Moisture  
Dew Point 38 °F    
Average Humidity 26    
Maximum Humidity 40    
Minimum Humidity 11    
Precipitation  
Precipitation 0.00 in 0.00 in 1.05 in (1942)
Month to date precipitation 0.00 0.03  
Year to date precipitation 0.95 5.45  
Since 1 July precipitation 0.09 0.13  
Snow  
Snow 0.00 in - 0.00 in (1973)
Month to date snowfall 0.0  
Since 1 June snowfall 0.0  
Since 1 July snowfall 0.0  
Snow Depth 0.00 in    
Sea Level Pressure  
Sea Level Pressure 29.92 in    
Wind  
Wind Speed 10 mph (SW)    
Max Wind Speed 22 mph    
Max Gust Speed 28 mph    
Visibility 10 miles    
Events      
T = Trace of Precipitation, MM = Missing Value Source: NWS Daily Summary

Daily Weather History Graph

Daily Weather History Graph

Search for Another Location

Airport or City:

Trip Planner

Search our weather history database for the weather conditions in past years. The results will help you decide how hot, cold, wet, or windy it might be!

Date:

Astronomy

Aug. 10, 2013 Rise Set
Actual Time 6:09 AM PDT 7:45 PM PDT
Civil Twilight 5:42 AM PDT 8:12 PM PDT
Nautical Twilight 5:10 AM PDT 8:44 PM PDT
Astronomical Twilight 4:35 AM PDT 9:18 PM PDT
Moon 9:48 AM PDT (8/10) 9:43 PM PDT (8/10)
Length of Visible Light 14h 29m
Length of Day
13h 35m
Waxing Crescent, 15% of the Moon is Illuminated
Aug 10
Waxing Crescent
Aug 14
First Quarter
Aug 20
Full
Aug 28
Last Quarter
Sep 5
New

Hourly Weather History & Observations

Time (PDT) Temp. Dew Point Humidity Pressure Visibility Wind Dir Wind Speed Gust Speed Precip Events Conditions
12:53 AM 70.0 °F 12.0 °F 11% 29.90 in 10.0 mi SW 12.7 mph - N/A   Clear
1:53 AM 66.9 °F 18.0 °F 15% 29.90 in 10.0 mi SW 10.4 mph - N/A   Clear
2:53 AM 68.0 °F 39.0 °F 35% 29.90 in 10.0 mi SW 9.2 mph - N/A   Clear
3:53 AM 64.9 °F 24.1 °F 21% 29.91 in 10.0 mi SSW 5.8 mph - N/A   Clear
4:53 AM 62.1 °F 30.0 °F 30% 29.92 in 10.0 mi SSW 6.9 mph - N/A   Clear
5:53 AM 62.1 °F 37.0 °F 39% 29.93 in 10.0 mi SW 6.9 mph - N/A   Clear
6:53 AM 64.0 °F 39.0 °F 40% 29.95 in 10.0 mi SSW 8.1 mph - N/A   Clear
7:53 AM 70.0 °F 41.0 °F 35% 29.96 in 10.0 mi South 4.6 mph - N/A   Clear
8:53 AM 75.0 °F 39.9 °F 28% 29.95 in 10.0 mi WSW 4.6 mph - N/A   Clear
9:53 AM 79.0 °F 39.9 °F 25% 29.96 in 10.0 mi NW 3.5 mph - N/A   Clear
10:53 AM 81.0 °F 37.9 °F 21% 29.95 in 10.0 mi Variable 3.5 mph - N/A   Clear
11:53 AM 82.9 °F 37.9 °F 20% 29.94 in 10.0 mi SW 9.2 mph - N/A   Clear
12:53 PM 87.1 °F 35.1 °F 16% 29.92 in 10.0 mi Variable 4.6 mph - N/A   Clear
1:53 PM 88.0 °F 35.1 °F 15% 29.91 in 10.0 mi Variable 5.8 mph 17.3 mph N/A   Clear
2:53 PM 89.1 °F 37.9 °F 16% 29.90 in 10.0 mi SW 12.7 mph 21.9 mph N/A   Clear
3:53 PM 89.1 °F 41.0 °F 19% 29.90 in 10.0 mi SW 18.4 mph - N/A   Clear
4:53 PM 87.1 °F 42.1 °F 21% 29.89 in 10.0 mi WSW 17.3 mph - N/A   Clear
5:53 PM 84.0 °F 45.0 °F 25% 29.90 in 10.0 mi WSW 19.6 mph - N/A   Clear
6:53 PM 81.0 °F 46.9 °F 30% 29.90 in 10.0 mi WSW 16.1 mph - N/A   Clear
7:53 PM 77.0 °F 45.0 °F 32% 29.91 in 10.0 mi West 12.7 mph - N/A   Clear
8:53 PM 75.0 °F 44.1 °F 33% 29.92 in 10.0 mi SW 10.4 mph - N/A   Clear
9:53 PM 73.0 °F 46.0 °F 38% 29.94 in 10.0 mi SW 12.7 mph - N/A   Clear
10:53 PM 71.1 °F 43.0 °F 36% 29.93 in 10.0 mi SW 11.5 mph - N/A   Clear
11:53 PM 69.1 °F 44.1 °F 40% 29.94 in 10.0 mi SSW 6.9 mph - N/A   Clear